FW5273 Weather Reports


time (UTC)temp
F
wind
direction
speed
knots
gust
knots
rain 1hr
in
rain 24hr
in
rain mn
in
humidity
%
barometer
mb
20260504045037 0 0.0 0.0 0.00 0.00 0.00
20260504044036 0 0.0 0.0 0.00 0.00 0.00
20260504043537 0 0.0 0.0 0.00 0.00 0.00
20260504042537 0 0.0 0.0 0.00 0.00 0.00
20260504041535 0 0.0 0.0 0.00 0.00 0.00
20260504040536 0 0.0 0.0 0.00 0.00 0.00
20260504035536 0 0.0 0.0 0.00 0.00 0.00
20260504034535 0 0.0 0.0 0.00 0.00 0.00
20260504033535 0 0.0 0.0 0.00 0.00 0.00
20260504032536 0 0.0 0.0 0.00 0.00 0.00
20260504031537 0 0.0 0.0 0.00 0.00 0.00
20260504030535 0 0.0 0.0 0.00 0.00 0.00
20260504025537 0 0.0 0.0 0.00 0.00 0.00
20260504024536 0 0.0 0.0 0.00 0.00 0.00
20260504023538 0 0.0 0.0 0.00 0.00 0.00
20260504022558 0 0.0 0.0 0.00 0.00 0.00
20260504021536 0 0.0 0.0 0.00 0.00 0.00
20260504020538 0 0.0 0.0 0.00 0.00 0.00
20260504015537 0 0.0 0.0 0.00 0.00 0.00
20260504014536 0 0.0 0.0 0.00 0.00 0.00
20260504013539 0 0.0 0.0 0.00 0.00 0.00
20260504012537 0 0.0 0.0 0.00 0.00 0.00
20260504011557 0 0.0 0.0 0.00 0.00 0.00
20260504011024 66 0.0 0.0 0.00 0.00 0.00 31
20260504010039 66 0 5.2 8.7 0.00 0.00 0.00 31
20260504005100 66 0 7.0 9.6 0.00 0.00 0.00 33
20260504004042 67 0 7.0 9.6 0.00 0.00 0.00 33
20260504003038 67 0 5.2 8.7 0.00 0.00 0.00 32
20260504002038 67 0 6.1 9.6 0.00 0.00 0.00 32
20260504001038 68 0 4.3 9.6 0.00 0.00 0.00 40
20260504000041 68 0 5.2 9.6 0.00 0.00 0.00 40
20260503235118 68 0 6.1 11.3 0.00 0.00 0.00 40
20260503234040 68 0 5.2 10.4 0.00 0.00 0.00 40
20260503233038 69 0 4.3 9.6 0.00 0.00 0.00 40
20260503232058 69 0 5.2 9.6 0.00 0.00 0.00 38
20260503231101 70 0 4.3 9.6 0.00 0.00 0.00 36
20260503230120 70 0 5.2 9.6 0.00 0.00 0.00 36
20260503225037 70 0 4.3 11.3 0.00 0.00 0.00 35
20260503224041 70 0 1.7 7.0 0.00 0.00 0.00 33
20260503223040 70 0 3.5 8.7 0.00 0.00 0.00 32
20260503222039 70 0 4.3 10.4 0.00 0.00 0.00 32
20260503221038 71 0 3.5 7.8 0.00 0.00 0.00 28
20260503220040 71 0 2.6 7.8 0.00 0.00 0.00 27
20260503215038 70 0 2.6 7.8 0.00 0.00 0.00 28
20260503214041 70 0 1.7 7.8 0.00 0.00 0.00 28
20260503213039 69 0 1.7 7.8 0.00 0.00 0.00 30
20260503212042 69 0 2.6 8.7 0.00 0.00 0.00 31
20260503211041 68 0 2.6 8.7 0.00 0.00 0.00 32
20260503210041 68 0 0.9 5.2 0.00 0.00 0.00 30
20260503205040 69 0 3.5 9.6 0.00 0.00 0.00 31
20260503204038 70 0 3.5 7.8 0.00 0.00 0.00 29
20260503203100 71 0 1.7 7.0 0.00 0.00 0.00 27
20260503202040 71 0 2.6 7.0 0.00 0.00 0.00 27
20260503201041 71 0 2.6 7.8 0.00 0.00 0.00 29
20260503200039 72 0 3.5 10.4 0.00 0.00 0.00 28
20260503195039 72 0 2.6 8.7 0.00 0.00 0.00 29
20260503194058 72 0 3.5 8.7 0.00 0.00 0.00 28
20260503193102 71 0 2.6 8.7 0.00 0.00 0.00 29
20260503192119 71 0 3.5 9.6 0.00 0.00 0.00 29
20260503191058 70 0 2.6 9.6 0.00 0.00 0.00 30
20260503190038 70 0 2.6 7.0 0.00 0.00 0.00 31
20260503185102 69 0 1.7 6.1 0.00 0.00 0.00 32
20260503184040 69 0 1.7 8.7 0.00 0.00 0.00 31
20260503183040 70 0 1.7 7.0 0.00 0.00 0.00 31
20260503182040 68 0 1.7 7.8 0.00 0.00 0.00 32
20260503181102 68 0 2.6 7.0 0.00 0.00 0.00 30
20260503180038 68 0 1.7 7.0 0.00 0.00 0.00 31
20260503175039 68 0.0 3.5 0.00 0.00 0.00 32
20260503174041 67 0 0.9 5.2 0.00 0.00 0.00 32
20260503173038 66 0 1.7 8.7 0.00 0.00 0.00 33
20260503172042 66 0 0.9 5.2 0.00 0.00 0.00 33
20260503171038 65 0 0.9 5.2 0.00 0.00 0.00 36
20260503150537 0 0.0 0.0 0.00 0.00 0.00
20260503131036 0 0.0 0.0 0.00 0.00 0.00
20260503081036 0 0.0 0.0 0.00 0.00 0.00
20260503080117 0 0.0 0.0 0.00 0.00 0.00
20260503072036 0 0.0 0.0 0.00 0.00 0.00
20260503071037 0 0.0 0.0 0.00 0.00 0.00